LiveATC.Net - Listen to live air traffic control over the Internet!
Airport/ARTCC Code
Frequency Search
(e.g., 124.400, 128.75)
Site-wide search
 


Browse Feeds
Top 50 Feeds
HF Oceanic Feeds
Coverage Map
Bad Weather Areas

LiveATC FAQ
Offer LiveATC feed
Contact LiveATC.net
Press Inquiries

LiveATC on iPhone
LiveATC on Android

Windows Phone
Windows 8/10

LiveATC Mobile
(Mobile browser)

ATC Audio Archives
Interesting Recordings

LiveATC Forums

Home Page
About LiveATC.net
Make a Donation
Terms of Use
Privacy Policy

Canadian Air Freqs

AIRMETs/SIGMETs

FAA Airport Status
NAS Status
Arrival Demand


Server Software By:
Icecast.org
Liquidsoap

Select an area of interest:
U.S. Feeds: Class B Airports | Class C Airports | Class D/Other Airports | ARTCC (Centers)
International Feeds: Canada | Europe | Oceania | Asia | South America | North/Central America | Africa
Misc Feeds: HF Feeds
Search by ICAO/IATA airport code:   (e.g., kbos, kjfk, lax, eham, etc.)


Currently Available Live Feeds: 2913
Status Updated: Sat Jul 24 2021 01:27:38 UTC


NOTICE

Unauthorized use prohibited. See LiveATC.net Terms of Service

Canada Airport Feeds

 

CEN4 CTAF (Archives)
High River, Alberta, Canada

Feed Status: UP
Listen in your browser - HTML5 player(in browser, HTML5)
Click here to listen with your own player(launches your MP3 player)

CEN4 Flight Activity (Flightaware)

Listeners: 0 out of 1376 total

High River CTAF: 123.000

CES4 CTAF (Archives)
Westlock, Alberta, Canada

Feed Status: UP
Listen in your browser - HTML5 player(in browser, HTML5)
Click here to listen with your own player(launches your MP3 player)


CES4 Flight Activity (Flightaware)

Listeners: 0 out of 1376 total

Westlock CTAF: 122.800

CES4 Emergency/Guard (Archives)
Westlock, Alberta, Canada

Feed Status: UP
Listen in your browser - HTML5 player(in browser, HTML5)
Click here to listen with your own player(launches your MP3 player)


CES4 Flight Activity (Flightaware)

Listeners: 0 out of 1376 total

Emergency/Guard: 121.500

CKK7 CTAF (Archives)
Steinbach, Manitoba, Canada

Feed Status: UP
Listen in your browser - HTML5 player(in browser, HTML5)
Click here to listen with your own player(launches your MP3 player)

CKK7 Flight Activity (Flightaware)

Listeners: 0 out of 1376 total

Steinbach CTAF: 122.700

CNC3 CTAF #2 (Archives)
Brampton, Ontario, Canada

Feed Status: UP
Listen in your browser - HTML5 player(in browser, HTML5)
Click here to listen with your own player(launches your MP3 player)


CYKZ Flight Activity (Flightaware)

Listeners: 0 out of 1376 total

Brampton CTAF: 123.300

Toronto Terminal (West Satellite) #1 (Archives)
Brampton, Ontario, Canada

Feed Status: UP
Listen in your browser - HTML5 player(in browser, HTML5)
Click here to listen with your own player(launches your MP3 player)

CYTZ 240000Z AUTO 14005KT 9SM CLR 23/15 A3009 RMK SLP192 DENSITY ALT 1100FT

CYTZ Flight Activity (Flightaware)

Listeners: 0 out of 1376 total

Toronto Terminal (West Satellite): 119.300

CNQ3 CTAF (Air Race End)
Welland, Ontario, Canada

Feed Status: DOWN
Offline since: 2019-06-28 16:08:02 UTC

Welland CTAF: 123.500

CNU8 CTAF (Archives)
Markham, Ontario, Canada

Feed Status: UP
Listen in your browser - HTML5 player(in browser, HTML5)
Click here to listen with your own player(launches your MP3 player)


CYKZ Flight Activity (Flightaware)

Listeners: 0 out of 1376 total

Markham UNICOM: 122.800

CNU8 Unicom/Airwork Area (Archives)
Markham, Ontario, Canada

Feed Status: UP
Listen in your browser - HTML5 player(in browser, HTML5)
Click here to listen with your own player(launches your MP3 player)

CNU8 Flight Activity (Flightaware)

Listeners: 0 out of 1376 total

Airwork CFA Sector #1 Northeast: 122.900
Markham UNICOM: 122.800

CNZ8 CTAF
Grimsby, Ontario, Canada

Feed Status: DOWN
Offline since: 2021-04-09 04:29:04 UTC

Grimsby CTAF: 123.350

CSB3 CTAF (Archives)
St-Mathieu-De-Beloeil, Quebec, Canada

Feed Status: UP
Listen in your browser - HTML5 player(in browser, HTML5)
Click here to listen with your own player(launches your MP3 player)

CSB3 Flight Activity (Flightaware)

Listeners: 0 out of 1376 total

St-Mathieu-De-Beloeil CTAF: 122.700

CSG3 CTAF (Archives)
Joliette, Quebec, Canada

Feed Status: UP
Listen in your browser - HTML5 player(in browser, HTML5)
Click here to listen with your own player(launches your MP3 player)

CSG3 Flight Activity (Flightaware)

Listeners: 0 out of 1376 total

Joliette CTAF: 123.500

CSR3 CTAF (Archives)
Victoriaville, Quebec, Canada

Feed Status: UP
Listen in your browser - HTML5 player(in browser, HTML5)
Click here to listen with your own player(launches your MP3 player)

CSR3 Flight Activity (Flightaware)

Listeners: 0 out of 1376 total

Victoriaville CTAF/UNICOM: 123.350

CYRQ/CSR3 CTAF (Archives)
Victoriaville, Quebec, Canada

Feed Status: UP
Listen in your browser - HTML5 player(in browser, HTML5)
Click here to listen with your own player(launches your MP3 player)

CYRQ 240056Z AUTO 15004KT 090V220 5SM HZ CLR 19/14 A3009 RMK SLP191 DENSITY ALT 600FT

CYRQ Flight Activity (Flightaware)

Listeners: 0 out of 1376 total

Trois-Rivieres CTAF/UNICOM: 122.350
Victoriaville CTAF/UNICOM: 123.350

CYAM ATIS
Sault Ste. Marie, Ontario, Canada

Feed Status: DOWN
Offline since: 2021-06-16 13:39:38 UTC

CYAM 240053Z 11005KT 070V130 8SM -SHRA FEW037 FEW055 BKN120 OVC170 21/17 A2999 RMK CU1SC1ACC4AC1 ACC OVRHD AND NW MOVG SE SLP159 DENSITY ALT 1500FT

Sault ATIS: 133.050

CYAM Ground/Misc
Sault Ste. Marie, Ontario, Canada

Feed Status: DOWN
Offline since: 2021-06-16 13:39:38 UTC

CYAM 240053Z 11005KT 070V130 8SM -SHRA FEW037 FEW055 BKN120 OVC170 21/17 A2999 RMK CU1SC1ACC4AC1 ACC OVRHD AND NW MOVG SE SLP159 DENSITY ALT 1500FT

London FIC: 123.475
London FIC: 126.700
Sault College: 130.700
Sault Ground: 121.700

CYAM Tower
Sault Ste. Marie, Ontario, Canada

Feed Status: DOWN
Offline since: 2021-06-16 13:39:38 UTC

CYAM 240053Z 11005KT 070V130 8SM -SHRA FEW037 FEW055 BKN120 OVC170 21/17 A2999 RMK CU1SC1ACC4AC1 ACC OVRHD AND NW MOVG SE SLP159 DENSITY ALT 1500FT

Sault Ste. Marie Tower: 118.800

Toronto Center (Sault High)
Sault Ste. Marie, Ontario, Canada

Feed Status: DOWN
Offline since: 2021-06-16 13:39:38 UTC

Toronto Center (Sault High Sector): 134.425

Toronto Center (Sault Low)
Sault Ste. Marie, Ontario, Canada

Feed Status: DOWN
Offline since: 2021-06-16 13:39:38 UTC

Toronto Center (Sault Low Sector): 132.650

CYAW ATIS (Archives)
Halifax, Nova Scotia, Canada

Feed Status: UP
Listen in your browser - HTML5 player(in browser, HTML5)
Click here to listen with your own player(launches your MP3 player)

CYAW Flight Activity (Flightaware)

Listeners: 0 out of 1376 total

Shearwater ATIS: 129.175

CYAW Gnd/Twr
Halifax, Nova Scotia, Canada

Feed Status: DOWN
Offline since: 2021-07-23 10:12:39 UTC

Shearwater Ground: 121.700
Shearwater Tower: 126.200

CYAW Gnd/Twr/Ops (Archives)
Halifax, Nova Scotia, Canada

Feed Status: UP
Listen in your browser - HTML5 player(in browser, HTML5)
Click here to listen with your own player(launches your MP3 player)

CYAW Flight Activity (Flightaware)

Listeners: 0 out of 1376 total

Shearwater FDC/Ops: 239.300
Shearwater Ground: 149.350
Shearwater Ground: 121.700
Shearwater Ground: 250.100
Shearwater Tower: 231.950
Shearwater Tower: 126.200
Shearwater Tower: 340.200

CYBP - Brooks (Archives)
Brooks, Alberta, Canada

Feed Status: UP
Listen in your browser - HTML5 player(in browser, HTML5)
Click here to listen with your own player(launches your MP3 player)

CYBP Flight Activity (Flightaware)

Listeners: 0 out of 1376 total

Brooks UNICOM: 122.800
Edmonton Center (North): 132.650
Edmonton Center (South): 125.050

CYEG Approach (Archives)
Edmonton, Alberta, Canada

Feed Status: UP
Listen in your browser - HTML5 player(in browser, HTML5)
Click here to listen with your own player(launches your MP3 player)

CYEG 240000Z 34011KT 20SM FEW050 BKN250 24/07 A2993 RMK CU1CI6 CU TR SLP143 DENSITY ALT 4000FT

CYEG Flight Activity (Flightaware)

Listeners: 1 out of 1376 total

Edmonton Approach: 120.500

CYEG Del/Ground/Misc (Archives)
Edmonton, Alberta, Canada

Feed Status: UP
Listen in your browser - HTML5 player(in browser, HTML5)
Click here to listen with your own player(launches your MP3 player)

CYEG 240000Z 34011KT 20SM FEW050 BKN250 24/07 A2993 RMK CU1CI6 CU TR SLP143 DENSITY ALT 4000FT

CYEG Flight Activity (Flightaware)

Listeners: 2 out of 1376 total

Edmonton Clearance Delivery: 124.100
Edmonton De-Ice: 122.775
Edmonton Ground: 121.700
Edmonton Radio (FIC): 122.375
Edmonton Radio (FIC): 126.700
Edmonton Radio (FIC): 122.500
Emergency/Guard: 121.500

CYEG Departure (Archives)
Edmonton, Alberta, Canada

Feed Status: UP
Listen in your browser - HTML5 player(in browser, HTML5)
Click here to listen with your own player(launches your MP3 player)

CYEG 240000Z 34011KT 20SM FEW050 BKN250 24/07 A2993 RMK CU1CI6 CU TR SLP143 DENSITY ALT 4000FT

CYEG Flight Activity (Flightaware)

Listeners: 1 out of 1376 total


CYEG Tower (Archives)
Edmonton, Alberta, Canada

Feed Status: UP
Listen in your browser - HTML5 player(in browser, HTML5)
Click here to listen with your own player(launches your MP3 player)

CYEG 240000Z 34011KT 20SM FEW050 BKN250 24/07 A2993 RMK CU1CI6 CU TR SLP143 DENSITY ALT 4000FT

CYEG Flight Activity (Flightaware)

Listeners: 1 out of 1376 total

Edmonton Tower: 118.300

CYEG VFR Advisory (Archives)
Edmonton, Alberta, Canada

Feed Status: UP
Listen in your browser - HTML5 player(in browser, HTML5)
Click here to listen with your own player(launches your MP3 player)

CYEG 240000Z 34011KT 20SM FEW050 BKN250 24/07 A2993 RMK CU1CI6 CU TR SLP143 DENSITY ALT 4000FT

CYEG Flight Activity (Flightaware)

Listeners: 1 out of 1376 total

Edmonton VFR Advisory: 119.500

CZEG Edmonton Center (FL280/below) (Archives)
Edmonton, Alberta, Canada

Feed Status: UP
Listen in your browser - HTML5 player(in browser, HTML5)
Click here to listen with your own player(launches your MP3 player)

CZEG Flight Activity (Flightaware)

Listeners: 3 out of 1376 total

Edmonton Center (ACC) (FL280 and below): 132.775

CZEG Edmonton Center (Lloydminster Sector) (Archives)
Edmonton, Alberta, Canada

Feed Status: UP
Listen in your browser - HTML5 player(in browser, HTML5)
Click here to listen with your own player(launches your MP3 player)

CZEG Flight Activity (Flightaware)

Listeners: 2 out of 1376 total

Edmonton Center (Lloydminster Sector Hi/Lo): 134.900

CYEY CTAF (Archives)
Amos, Quebec, Canada

Feed Status: UP
Listen in your browser - HTML5 player(in browser, HTML5)
Click here to listen with your own player(launches your MP3 player)

CYEY Flight Activity (Flightaware)

Listeners: 0 out of 1376 total

Amos CTAF/UNICOM: 123.000
Emergency/Guard: 121.500

CYFB CTAF/RDO
Iqaluit, Nunavut, Canada

Feed Status: DOWN
Offline since: 2021-07-20 21:38:05 UTC

CYFB 240000Z 33011G16KT 30SM BKN055 11/04 A2977 RMK SC7 SLP085

Iqaluit CTAF/Radio: 122.200
Iqaluit Ramp/Taxi Control: 122.925
Quebec Radio FIC: 126.700

CYFB Montreal Center
Iqaluit, Nunavut, Canada

Feed Status: DOWN
Offline since: 2021-07-20 21:38:05 UTC

CYFB 240000Z 33011G16KT 30SM BKN055 11/04 A2977 RMK SC7 SLP085

Montreal Center (Brevoort Sector FL290 and above): 132.800
Montreal Center (Nuvilik Sector FL280 and below): 134.550

CYFB RDO/FIC/Edmonton Ctr
Iqaluit, Nunavut, Canada

Feed Status: DOWN
Offline since: 2021-07-20 21:38:05 UTC

CYFB 240000Z 33011G16KT 30SM BKN055 11/04 A2977 RMK SC7 SLP085

Edmonton Center (Clyde Sector FL230 and above): 118.475
Emergency/Guard: 121.500
Gander Radio: 126.900
Quebec Radio FIC: 123.275

CYFD ATF (CTAF) (Archives)
Brantford, Ontario, Canada

Feed Status: UP
Listen in your browser - HTML5 player(in browser, HTML5)
Click here to listen with your own player(launches your MP3 player)

CYFD Flight Activity (Flightaware)

Listeners: 0 out of 1376 total

Brantford ATF (CTAF): 122.825

CYFD ATF (CTAF)/App (Archives)
Brantford, Ontario, Canada

Feed Status: UP
Listen in your browser - HTML5 player(in browser, HTML5)
Click here to listen with your own player(launches your MP3 player)

CYFD Flight Activity (Flightaware)

Listeners: 0 out of 1376 total

Brantford ATF (CTAF): 122.825
Toronto Terminal (West Satellite): 119.700

CYHU Tower (Archives)
Montreal, Quebec, Canada

Feed Status: UP
Listen in your browser - HTML5 player(in browser, HTML5)
Click here to listen with your own player(launches your MP3 player)

CYHU 240059Z AUTO 00000KT 1 1/4SM HZ CLR 22/14 A3009 RMK SLP190 DENSITY ALT 700FT

CYHU Flight Activity (Flightaware)

Listeners: 0 out of 1376 total

Saint-Hubert Tower: 121.300
Saint-Hubert Tower: 118.400

CYHZ ATIS (Archives)
Halifax, Nova Scotia, Canada

Feed Status: UP
Listen in your browser - HTML5 player(in browser, HTML5)
Click here to listen with your own player(launches your MP3 player)

CYHZ 240000Z 24007KT 15SM FEW030TCU FEW130 FEW260 18/15 A3002 RMK TCU1AC1CI1 TCU TR CI TR CB TOP E SLP168 DENSITY ALT 900FT

CYHZ Flight Activity (Flightaware)

Listeners: 0 out of 1376 total

Halifax ATIS: 121.000

CYHZ Clearance Delivery (Archives)
Halifax, Nova Scotia, Canada

Feed Status: UP
Listen in your browser - HTML5 player(in browser, HTML5)
Click here to listen with your own player(launches your MP3 player)

CYHZ 240000Z 24007KT 15SM FEW030TCU FEW130 FEW260 18/15 A3002 RMK TCU1AC1CI1 TCU TR CI TR CB TOP E SLP168 DENSITY ALT 900FT

CYHZ Flight Activity (Flightaware)

Listeners: 1 out of 1376 total

Halifax Clearance Delivery: 123.950

CYHZ Del/Gnd/Twr/App #1 (Archives)
Halifax, Nova Scotia, Canada

Feed Status: UP
Listen in your browser - HTML5 player(in browser, HTML5)
Click here to listen with your own player(launches your MP3 player)

CYHZ 240000Z 24007KT 15SM FEW030TCU FEW130 FEW260 18/15 A3002 RMK TCU1AC1CI1 TCU TR CI TR CB TOP E SLP168 DENSITY ALT 900FT

CYHZ Flight Activity (Flightaware)

Listeners: 1 out of 1376 total

Emergency/Guard: 121.500
Halifax Arrival/Departure: 119.200
Halifax Clearance Delivery: 123.950
Halifax De-icing: 122.350
Halifax De-icing: 129.250
Halifax De-icing: 122.950
Halifax Ground: 121.900
Halifax Radio FIC: 123.275
Halifax Radio FIC (Enroute): 126.700
Halifax Terminal (backup): 128.550
Halifax Terminal VFR: 118.700
Halifax Tower: 118.400
Moncton Center PAL Low: 135.300

CYHZ Del/Gnd/Twr/App #2 (Archives)
Halifax, Nova Scotia, Canada

Feed Status: UP
Listen in your browser - HTML5 player(in browser, HTML5)
Click here to listen with your own player(launches your MP3 player)

CYHZ 240000Z 24007KT 15SM FEW030TCU FEW130 FEW260 18/15 A3002 RMK TCU1AC1CI1 TCU TR CI TR CB TOP E SLP168 DENSITY ALT 900FT

CYHZ Flight Activity (Flightaware)

Listeners: 0 out of 1376 total

Emergency/Guard: 121.500
Halifax Arrival/Departure: 119.200
Halifax Clearance Delivery: 123.950
Halifax De-icing: 122.950
Halifax De-icing: 122.350
Halifax De-icing: 129.250
Halifax Ground: 121.900
Halifax Radio FIC: 123.275
Halifax Radio FIC (Enroute): 126.700
Halifax Terminal (backup): 128.550
Halifax Terminal VFR: 118.700
Halifax Tower: 118.400
Moncton Center PAL Low: 135.300

CYHZ Departure/Arrival (Archives)
Halifax, Nova Scotia, Canada

Feed Status: UP
Listen in your browser - HTML5 player(in browser, HTML5)
Click here to listen with your own player(launches your MP3 player)

CYHZ 240000Z 24007KT 15SM FEW030TCU FEW130 FEW260 18/15 A3002 RMK TCU1AC1CI1 TCU TR CI TR CB TOP E SLP168 DENSITY ALT 900FT

CYHZ Flight Activity (Flightaware)

Listeners: 1 out of 1376 total

Halifax Arrival/Departure: 119.200

CYHZ Ground (Archives)
Halifax, Nova Scotia, Canada

Feed Status: UP
Listen in your browser - HTML5 player(in browser, HTML5)
Click here to listen with your own player(launches your MP3 player)

CYHZ 240000Z 24007KT 15SM FEW030TCU FEW130 FEW260 18/15 A3002 RMK TCU1AC1CI1 TCU TR CI TR CB TOP E SLP168 DENSITY ALT 900FT

CYHZ Flight Activity (Flightaware)

Listeners: 0 out of 1376 total

Halifax Ground: 121.900

CYHZ Halifax Radio FIC (Archives)
Halifax, Nova Scotia, Canada

Feed Status: UP
Listen in your browser - HTML5 player(in browser, HTML5)
Click here to listen with your own player(launches your MP3 player)

CYHZ 240000Z 24007KT 15SM FEW030TCU FEW130 FEW260 18/15 A3002 RMK TCU1AC1CI1 TCU TR CI TR CB TOP E SLP168 DENSITY ALT 900FT

CYHZ Flight Activity (Flightaware)

Listeners: 0 out of 1376 total

Halifax Radio FIC: 123.275

CYHZ Moncton Centre/A2A
Halifax, Nova Scotia, Canada

Feed Status: DOWN
Offline since: 2021-07-16 08:43:04 UTC

CYHZ 240000Z 24007KT 15SM FEW030TCU FEW130 FEW260 18/15 A3002 RMK TCU1AC1CI1 TCU TR CI TR CB TOP E SLP168 DENSITY ALT 900FT

Aircraft to Aircraft: 123.450
Moncton Centre High (East): 125.250
Moncton Centre High (East): 132.750
Moncton PAL High: 133.950

CYHZ Moncton PAL High (Archives)
Halifax, Nova Scotia, Canada

Feed Status: UP
Listen in your browser - HTML5 player(in browser, HTML5)
Click here to listen with your own player(launches your MP3 player)

CYHZ 240000Z 24007KT 15SM FEW030TCU FEW130 FEW260 18/15 A3002 RMK TCU1AC1CI1 TCU TR CI TR CB TOP E SLP168 DENSITY ALT 900FT

CYHZ Flight Activity (Flightaware)

Listeners: 0 out of 1376 total

Moncton PAL High: 133.950

CYHZ Moncton PAL Low (Archives)
Halifax, Nova Scotia, Canada

Feed Status: UP
Listen in your browser - HTML5 player(in browser, HTML5)
Click here to listen with your own player(launches your MP3 player)

CYHZ 240000Z 24007KT 15SM FEW030TCU FEW130 FEW260 18/15 A3002 RMK TCU1AC1CI1 TCU TR CI TR CB TOP E SLP168 DENSITY ALT 900FT

CYHZ Flight Activity (Flightaware)

Listeners: 0 out of 1376 total

Moncton Center PAL Low: 135.300

CYHZ Tower (Archives)
Halifax, Nova Scotia, Canada

Feed Status: UP
Listen in your browser - HTML5 player(in browser, HTML5)
Click here to listen with your own player(launches your MP3 player)

CYHZ 240000Z 24007KT 15SM FEW030TCU FEW130 FEW260 18/15 A3002 RMK TCU1AC1CI1 TCU TR CI TR CB TOP E SLP168 DENSITY ALT 900FT

CYHZ Flight Activity (Flightaware)

Listeners: 0 out of 1376 total

Halifax Tower: 118.400

CYJN Ground/Tower (Archives)
St. Jean, Quebec, Canada

Feed Status: UP
Listen in your browser - HTML5 player(in browser, HTML5)
Click here to listen with your own player(launches your MP3 player)

CYJN Flight Activity (Flightaware)

Listeners: 0 out of 1376 total

St. Jean Ground: 121.700
St. Jean Tower: 118.200

CYKF Gnd/Twr (Archives)
Waterloo, Ontario, Canada

Feed Status: UP
Listen in your browser - HTML5 player(in browser, HTML5)
Click here to listen with your own player(launches your MP3 player)

CYKF 240000Z AUTO 19005KT 9SM BKN060 23/13 A3011 RMK SLP196 DENSITY ALT 2100FT

CYKF Flight Activity (Flightaware)

Listeners: 2 out of 1376 total

FBO: 123.500
Waterloo Ground: 121.800
Waterloo Tower: 126.000

CYKZ Air Amb/Toronto East (Archives)
Buttonville, Ontario, Canada

Feed Status: UP
Listen in your browser - HTML5 player(in browser, HTML5)
Click here to listen with your own player(launches your MP3 player)


CYKZ Flight Activity (Flightaware)

Listeners: 0 out of 1376 total

Air Ambulance: 129.275
Toronto Terminal (East): 133.400

CYKZ Air Ambulance #2 (Archives)
Buttonville, Ontario, Canada

Feed Status: UP
Listen in your browser - HTML5 player(in browser, HTML5)
Click here to listen with your own player(launches your MP3 player)


CYKZ Flight Activity (Flightaware)

Listeners: 0 out of 1376 total


CYKZ ATIS (Archives)
Buttonville, Ontario, Canada

Feed Status: UP
Listen in your browser - HTML5 player(in browser, HTML5)
Click here to listen with your own player(launches your MP3 player)


CYKZ Flight Activity (Flightaware)

Listeners: 0 out of 1376 total

Buttonsville ATIS: 127.100

CYKZ CFA1 NE (Archives)
Buttonville, Ontario, Canada

Feed Status: UP
Listen in your browser - HTML5 player(in browser, HTML5)
Click here to listen with your own player(launches your MP3 player)


CYKZ Flight Activity (Flightaware)

Listeners: 0 out of 1376 total

Common Frequency Area (NE): 122.900

CYKZ CFA2 NW (Archives)
Buttonville, Ontario, Canada

Feed Status: UP
Listen in your browser - HTML5 player(in browser, HTML5)
Click here to listen with your own player(launches your MP3 player)


CYKZ Flight Activity (Flightaware)

Listeners: 0 out of 1376 total

Common Frequency Area (NW): 123.025

CYKZ CTAF (Archives)
Buttonville, Ontario, Canada

Feed Status: UP
Listen in your browser - HTML5 player(in browser, HTML5)
Click here to listen with your own player(launches your MP3 player)


CYKZ Flight Activity (Flightaware)

Listeners: 0 out of 1376 total

Buttonville Multicom: 124.800

CYKZ Flight Plan (Archives)
Buttonville, Ontario, Canada

Feed Status: UP
Listen in your browser - HTML5 player(in browser, HTML5)
Click here to listen with your own player(launches your MP3 player)


CYKZ Flight Activity (Flightaware)

Listeners: 0 out of 1376 total

Flight Plan: 123.150

CYKZ Flightline (Archives)
Buttonville, Ontario, Canada

Feed Status: UP
Listen in your browser - HTML5 player(in browser, HTML5)
Click here to listen with your own player(launches your MP3 player)


CYKZ Flight Activity (Flightaware)

Listeners: 0 out of 1376 total

Flight Line: 123.500

CYKZ FlightPlan/CZYZ East (Archives)
Buttonville, Ontario, Canada

Feed Status: UP
Listen in your browser - HTML5 player(in browser, HTML5)
Click here to listen with your own player(launches your MP3 player)


CYKZ Flight Activity (Flightaware)

Listeners: 0 out of 1376 total

CYKZ Flight Plan: 123.150
Toronto Centre East: 133.400

CYKZ Guard 121.5 (Archives)
Buttonville, Ontario, Canada

Feed Status: UP
Listen in your browser - HTML5 player(in browser, HTML5)
Click here to listen with your own player(launches your MP3 player)


CYKZ Flight Activity (Flightaware)

Listeners: 0 out of 1376 total

Emergency/Guard: 121.500

CYKZ London (Archives)
Buttonville, Ontario, Canada

Feed Status: UP
Listen in your browser - HTML5 player(in browser, HTML5)
Click here to listen with your own player(launches your MP3 player)


CYKZ Flight Activity (Flightaware)

Listeners: 0 out of 1376 total

Bulletins (London Radio): 126.700

CYKZ London Radio/Flightline (Archives)
Buttonville, Ontario, Canada

Feed Status: UP
Listen in your browser - HTML5 player(in browser, HTML5)
Click here to listen with your own player(launches your MP3 player)


CYKZ Flight Activity (Flightaware)

Listeners: 0 out of 1376 total

Bulletins (London Radio): 126.700
Buttonville Flightline: 123.500

CYKZ Seneca Dispatch (Archives)
Buttonville, Ontario, Canada

Feed Status: UP
Listen in your browser - HTML5 player(in browser, HTML5)
Click here to listen with your own player(launches your MP3 player)


CYKZ Flight Activity (Flightaware)

Listeners: 0 out of 1376 total

Seneca Dispatch: 122.225

CYKZ Seneca Dispatch/Backup (Archives)
Buttonville, Ontario, Canada

Feed Status: UP
Listen in your browser - HTML5 player(in browser, HTML5)
Click here to listen with your own player(launches your MP3 player)


CYKZ Flight Activity (Flightaware)

Listeners: 0 out of 1376 total

Seneca Dispatch: 122.225

CYKZ Tower (Archives)
Buttonville, Ontario, Canada

Feed Status: UP
Listen in your browser - HTML5 player(in browser, HTML5)
Click here to listen with your own player(launches your MP3 player)


CYKZ Flight Activity (Flightaware)

Listeners: 0 out of 1376 total


CYKZ Tower (Backup) (Archives)
Buttonville, Ontario, Canada

Feed Status: UP
Listen in your browser - HTML5 player(in browser, HTML5)
Click here to listen with your own player(launches your MP3 player)


CYKZ Flight Activity (Flightaware)

Listeners: 0 out of 1376 total


Toronto Terminal (West Satellite) #2 (Archives)
Buttonville, Ontario, Canada

Feed Status: UP
Listen in your browser - HTML5 player(in browser, HTML5)
Click here to listen with your own player(launches your MP3 player)


CYKZ Flight Activity (Flightaware)

Listeners: 0 out of 1376 total

Toronto Terminal (West Satellite): 119.300

CYNJ Ground (Archives)
Langley, British Columbia, Canada

Feed Status: UP
Listen in your browser - HTML5 player(in browser, HTML5)
Click here to listen with your own player(launches your MP3 player)


CYNJ Flight Activity (Flightaware)

Listeners: 0 out of 1376 total

Langley Ground: 121.900

CYNJ Tower (Archives)
Langley, British Columbia, Canada

Feed Status: UP
Listen in your browser - HTML5 player(in browser, HTML5)
Click here to listen with your own player(launches your MP3 player)


CYNJ Flight Activity (Flightaware)

Listeners: 0 out of 1376 total

Langley Tower: 119.000

CYOO Ground (Archives)
Oshawa, Ontario, Canada

Feed Status: UP
Listen in your browser - HTML5 player(in browser, HTML5)
Click here to listen with your own player(launches your MP3 player)

CYOO 240000Z AUTO 20004KT 9SM CLR 23/11 A3011 RMK SLP196 DENSITY ALT 1400FT

CYOO Flight Activity (Flightaware)

Listeners: 1 out of 1376 total

Oshawa Ground: 118.400

CYOO Tower (Archives)
Oshawa, Ontario, Canada

Feed Status: UP
Listen in your browser - HTML5 player(in browser, HTML5)
Click here to listen with your own player(launches your MP3 player)

CYOO 240000Z AUTO 20004KT 9SM CLR 23/11 A3011 RMK SLP196 DENSITY ALT 1400FT

CYOO Flight Activity (Flightaware)

Listeners: 0 out of 1376 total

Oshawa Tower: 120.100

CYOW Gnd/Twr/App (Archives)
Ottawa, Ontario, Canada

Feed Status: UP
Listen in your browser - HTML5 player(in browser, HTML5)
Click here to listen with your own player(launches your MP3 player)

CYOW 240000Z 35004KT 310V020 15SM FEW050TCU 24/13 A3010 RMK TCU1 SLP193 DENSITY ALT 1300FT

CYOW Flight Activity (Flightaware)

Listeners: 2 out of 1376 total

De-Icing (Ice Man): 122.350
De-Icing (Pad Control): 122.925
Ottawa Ground: 121.900
Ottawa Terminal: 127.700
Ottawa Terminal (Arrivals): 135.150
Ottawa Terminal (Departures): 128.175
Ottawa Tower: 118.800
Ottawa Tower: 120.100

CYPK Tower (Archives)
Pitt Meadows, British Columbia, Canada

Feed Status: UP
Listen in your browser - HTML5 player(in browser, HTML5)
Click here to listen with your own player(launches your MP3 player)

CYPK Flight Activity (Flightaware)

Listeners: 1 out of 1376 total

Pitt Meadows Tower: 126.300

CYPQ AWOS (Archives)
Peterborough, Ontario, Canada

Feed Status: UP
Listen in your browser - HTML5 player(in browser, HTML5)
Click here to listen with your own player(launches your MP3 player)

CYPQ 240000Z AUTO 18004KT 9SM CLR 22/16 A3011 RMK SLP196 DENSITY ALT 1500FT

CYPQ Flight Activity (Flightaware)

Listeners: 0 out of 1376 total

Peterborough AWOS: 126.925

CYPQ Dispatch/UNICOM (Archives)
Peterborough, Ontario, Canada

Feed Status: UP
Listen in your browser - HTML5 player(in browser, HTML5)
Click here to listen with your own player(launches your MP3 player)

CYPQ 240000Z AUTO 18004KT 9SM CLR 22/16 A3011 RMK SLP196 DENSITY ALT 1500FT

CYPQ Flight Activity (Flightaware)

Listeners: 0 out of 1376 total

Peterborough UNICOM: 123.000
Seneca Dispatch: 122.225

CYPQ Regional/Radar (Archives)
Peterborough, Ontario, Canada

Feed Status: UP
Listen in your browser - HTML5 player(in browser, HTML5)
Click here to listen with your own player(launches your MP3 player)

CYPQ 240000Z AUTO 18004KT 9SM CLR 22/16 A3011 RMK SLP196 DENSITY ALT 1500FT

CYPQ Flight Activity (Flightaware)

Listeners: 1 out of 1376 total

Air Ambulance: 129.275
CA-0307: 122.775
CFA1 NE Toronto: 122.900
CNF4/CPS2/CNQ6: 122.800
CPH3: 123.200
Fire Spotting: 122.925
Peterborough RCO: 126.700
Toronto Centre - YYZ ACC (East Radar): 134.250

CYPQ UNICOM/Guard (Archives)
Peterborough, Ontario, Canada

Feed Status: UP
Listen in your browser - HTML5 player(in browser, HTML5)
Click here to listen with your own player(launches your MP3 player)

CYPQ 240000Z AUTO 18004KT 9SM CLR 22/16 A3011 RMK SLP196 DENSITY ALT 1500FT

CYPQ Flight Activity (Flightaware)

Listeners: 0 out of 1376 total

Emergency/Guard: 121.500
Peterborough UNICOM: 123.000

CYQB App/Dep (Terminal/124.0) (Archives)
Quebec, Quebec, Canada

Feed Status: UP
Listen in your browser - HTML5 player(in browser, HTML5)
Click here to listen with your own player(launches your MP3 player)

CYQB 240000Z 00000KT 30SM FEW070 SCT150 SCT260 19/14 A3008 RMK CU1ACC2CI1 CI TR VIRGA N / TCU ASCTD S SLP187 DENSITY ALT 600FT

CYQB Flight Activity (Flightaware)

Listeners: 2 out of 1376 total

Quebec Terminal: 124.000

CYQB App/Dep (Terminal/127.85) (Archives)
Quebec, Quebec, Canada

Feed Status: UP
Listen in your browser - HTML5 player(in browser, HTML5)
Click here to listen with your own player(launches your MP3 player)

CYQB 240000Z 00000KT 30SM FEW070 SCT150 SCT260 19/14 A3008 RMK CU1ACC2CI1 CI TR VIRGA N / TCU ASCTD S SLP187 DENSITY ALT 600FT

CYQB Flight Activity (Flightaware)

Listeners: 0 out of 1376 total

Quebec Terminal: 127.850

CYQB ATIS (English) (Archives)
Quebec, Quebec, Canada

Feed Status: UP
Listen in your browser - HTML5 player(in browser, HTML5)
Click here to listen with your own player(launches your MP3 player)

CYQB 240000Z 00000KT 30SM FEW070 SCT150 SCT260 19/14 A3008 RMK CU1ACC2CI1 CI TR VIRGA N / TCU ASCTD S SLP187 DENSITY ALT 600FT

CYQB Flight Activity (Flightaware)

Listeners: 0 out of 1376 total

Quebec City ATIS (English): 134.600

CYQB ATIS (French) (Archives)
Quebec, Quebec, Canada

Feed Status: UP
Listen in your browser - HTML5 player(in browser, HTML5)
Click here to listen with your own player(launches your MP3 player)

CYQB 240000Z 00000KT 30SM FEW070 SCT150 SCT260 19/14 A3008 RMK CU1ACC2CI1 CI TR VIRGA N / TCU ASCTD S SLP187 DENSITY ALT 600FT

CYQB Flight Activity (Flightaware)

Listeners: 0 out of 1376 total

Quebec City ATIS (French): 128.300

CYQB Flight Service (Archives)
Quebec, Quebec, Canada

Feed Status: UP
Listen in your browser - HTML5 player(in browser, HTML5)
Click here to listen with your own player(launches your MP3 player)

CYQB 240000Z 00000KT 30SM FEW070 SCT150 SCT260 19/14 A3008 RMK CU1ACC2CI1 CI TR VIRGA N / TCU ASCTD S SLP187 DENSITY ALT 600FT

CYQB Flight Activity (Flightaware)

Listeners: 0 out of 1376 total

Quebec Radio Flight Service: 126.700

CYQB Flight Service (FIS) (Archives)
Quebec, Quebec, Canada

Feed Status: UP
Listen in your browser - HTML5 player(in browser, HTML5)
Click here to listen with your own player(launches your MP3 player)

CYQB 240000Z 00000KT 30SM FEW070 SCT150 SCT260 19/14 A3008 RMK CU1ACC2CI1 CI TR VIRGA N / TCU ASCTD S SLP187 DENSITY ALT 600FT

CYQB Flight Activity (Flightaware)

Listeners: 0 out of 1376 total

Quebec Radio Flight Service (FIS): 123.275

CYQB Ground/Tower (Archives)
Quebec, Quebec, Canada

Feed Status: UP
Listen in your browser - HTML5 player(in browser, HTML5)
Click here to listen with your own player(launches your MP3 player)

CYQB 240000Z 00000KT 30SM FEW070 SCT150 SCT260 19/14 A3008 RMK CU1ACC2CI1 CI TR VIRGA N / TCU ASCTD S SLP187 DENSITY ALT 600FT

CYQB Flight Activity (Flightaware)

Listeners: 0 out of 1376 total

Quebec City Ground: 121.900

Montreal Center (Drummond/133.225) (Archives)
Quebec, Quebec, Canada

Feed Status: UP
Listen in your browser - HTML5 player(in browser, HTML5)
Click here to listen with your own player(launches your MP3 player)

CYQB 240000Z 00000KT 30SM FEW070 SCT150 SCT260 19/14 A3008 RMK CU1ACC2CI1 CI TR VIRGA N / TCU ASCTD S SLP187 DENSITY ALT 600FT

CYQB Flight Activity (Flightaware)

Listeners: 1 out of 1376 total

Montreal Center (Drummond Sector): 133.225

Montreal Center (Drummond/135.025) (Archives)
Quebec, Quebec, Canada

Feed Status: UP
Listen in your browser - HTML5 player(in browser, HTML5)
Click here to listen with your own player(launches your MP3 player)

CYQB 240000Z 00000KT 30SM FEW070 SCT150 SCT260 19/14 A3008 RMK CU1ACC2CI1 CI TR VIRGA N / TCU ASCTD S SLP187 DENSITY ALT 600FT

CYQB Flight Activity (Flightaware)

Listeners: 1 out of 1376 total

Montreal Center (Drummond Sector): 135.025

Montreal Center (Levis/123.925) (Archives)
Quebec, Quebec, Canada

Feed Status: UP
Listen in your browser - HTML5 player(in browser, HTML5)
Click here to listen with your own player(launches your MP3 player)

CYQB 240000Z 00000KT 30SM FEW070 SCT150 SCT260 19/14 A3008 RMK CU1ACC2CI1 CI TR VIRGA N / TCU ASCTD S SLP187 DENSITY ALT 600FT

CYQB Flight Activity (Flightaware)

Listeners: 1 out of 1376 total

Montreal Center (Levis Sector): 123.925

CYQG Gnd/Twr/App/Misc (Archives)
Windsor, Ontario, Canada

Feed Status: UP
Listen in your browser - HTML5 player(in browser, HTML5)
Click here to listen with your own player(launches your MP3 player)

CYQG 240000Z AUTO 15006KT 9SM SCT028 BKN066 OVC110 21/18 A3010 RMK SLP193 DENSITY ALT 1300FT

CYQG Flight Activity (Flightaware)

Listeners: 0 out of 1376 total

Detroit Approach: 134.300
Great Lakes ESSO: 122.950
Jazz Air: 131.775
London RCO: 123.375
Windsor Ground: 121.700
Windsor Tower: 124.700

CYQI CTAF/UNICOM (Archives)
Yarmouth, Nova Scotia, Canada

Feed Status: UP
Listen in your browser - HTML5 player(in browser, HTML5)
Click here to listen with your own player(launches your MP3 player)

CYQI 240000Z 30005KT 15SM FEW025TCU FEW250 15/13 A3004 RMK TCU1CI1 TCU TR CI TR SLP175

CYQI Flight Activity (Flightaware)

Listeners: 0 out of 1376 total

Yarmouth CTAF/UNICOM: 123.000

CYQI Halifax FIC (Archives)
Yarmouth, Nova Scotia, Canada

Feed Status: UP
Listen in your browser - HTML5 player(in browser, HTML5)
Click here to listen with your own player(launches your MP3 player)

CYQI 240000Z 30005KT 15SM FEW025TCU FEW250 15/13 A3004 RMK TCU1CI1 TCU TR CI TR SLP175

CYQI Flight Activity (Flightaware)

Listeners: 0 out of 1376 total

Halifax FIC (CYQI Area): 126.700

CYQI Moncton Center (Vitol Sector/High) (Archives)
Yarmouth, Nova Scotia, Canada

Feed Status: UP
Listen in your browser - HTML5 player(in browser, HTML5)
Click here to listen with your own player(launches your MP3 player)

CYQI 240000Z 30005KT 15SM FEW025TCU FEW250 15/13 A3004 RMK TCU1CI1 TCU TR CI TR SLP175

CYQI Flight Activity (Flightaware)

Listeners: 0 out of 1376 total

Moncton Center (Vitol Sector): 128.375

CYQI Moncton Center High (Archives)
Yarmouth, Nova Scotia, Canada

Feed Status: UP
Listen in your browser - HTML5 player(in browser, HTML5)
Click here to listen with your own player(launches your MP3 player)

CYQI 240000Z 30005KT 15SM FEW025TCU FEW250 15/13 A3004 RMK TCU1CI1 TCU TR CI TR SLP175

CYQI Flight Activity (Flightaware)

Listeners: 1 out of 1376 total

Moncton Center (TUSKY/BRADD Sector): 135.200
Moncton Center (Vitol Sector): 128.375
Moncton Center (WHALE /KANNI Sector): 132.975

CYQI Moncton Center Low (Archives)
Yarmouth, Nova Scotia, Canada

Feed Status: UP
Listen in your browser - HTML5 player(in browser, HTML5)
Click here to listen with your own player(launches your MP3 player)

CYQI 240000Z 30005KT 15SM FEW025TCU FEW250 15/13 A3004 RMK TCU1CI1 TCU TR CI TR SLP175

CYQI Flight Activity (Flightaware)

Listeners: 0 out of 1376 total

Moncton Center (Digby Sector): 123.900

CYQI Moncton Center Low/High (Archives)
Yarmouth, Nova Scotia, Canada

Feed Status: UP
Listen in your browser - HTML5 player(in browser, HTML5)
Click here to listen with your own player(launches your MP3 player)

CYQI 240000Z 30005KT 15SM FEW025TCU FEW250 15/13 A3004 RMK TCU1CI1 TCU TR CI TR SLP175

CYQI Flight Activity (Flightaware)

Listeners: 0 out of 1376 total

Moncton Center (Digby Sector): 123.900
Moncton Center (TUSKY/BRADD Sector): 135.200
Moncton Center (Vitol Sector): 128.375
Moncton Center (WHALE /KANNI Sector): 132.975

CYQI Wildfire/SAR Aircraft (Archives)
Yarmouth, Nova Scotia, Canada

Feed Status: UP
Listen in your browser - HTML5 player(in browser, HTML5)
Click here to listen with your own player(launches your MP3 player)

CYQI 240000Z 30005KT 15SM FEW025TCU FEW250 15/13 A3004 RMK TCU1CI1 TCU TR CI TR SLP175

CYQI Flight Activity (Flightaware)

Listeners: 0 out of 1376 total

Provincial Aircraft/Wildfires/SAR: 122.400

CYQM App/Dep (Archives)
Moncton, New Brunswick, Canada

Feed Status: UP
Listen in your browser - HTML5 player(in browser, HTML5)
Click here to listen with your own player(launches your MP3 player)

CYQM 240000Z 00000KT 15SM FEW041 SCT130 BKN210 15/15 A3002 RMK SC1AC2CI2 SLP168

CYQM Flight Activity (Flightaware)

Listeners: 0 out of 1376 total

Moncton Radar: 124.400

CYQM Gnd/Twr/Misc (Archives)
Moncton, New Brunswick, Canada

Feed Status: UP
Listen in your browser - HTML5 player(in browser, HTML5)
Click here to listen with your own player(launches your MP3 player)

CYQM 240000Z 00000KT 15SM FEW041 SCT130 BKN210 15/15 A3002 RMK SC1AC2CI2 SLP168

CYQM Flight Activity (Flightaware)

Listeners: 0 out of 1376 total

Halifax FIC RCO: 122.500
Halifax FIC RCO: 126.700
Moncton Flight College: 123.350
Moncton Ground: 121.800
Moncton Tower: 120.800

CYQM Moncton Center High (Archives)
Moncton, New Brunswick, Canada

Feed Status: UP
Listen in your browser - HTML5 player(in browser, HTML5)
Click here to listen with your own player(launches your MP3 player)

CZQM Flight Activity (Flightaware)

Listeners: 1 out of 1376 total

Moncton Center (Freddy Sector, High): 132.700
Moncton Center (Fundy Sector, High): 127.125
Moncton Center (Miils Sector): 133.875

CYQM Moncton Center Low (Archives)
Moncton, New Brunswick, Canada

Feed Status: UP
Listen in your browser - HTML5 player(in browser, HTML5)
Click here to listen with your own player(launches your MP3 player)

CZQM Flight Activity (Flightaware)

Listeners: 1 out of 1376 total

Moncton Center: 132.500
Moncton Center (Digby Sector, Low): 132.200

CYQT Ground/Tower (Archives)
Thunder Bay, Ontario, Canada

Feed Status: UP
Listen in your browser - HTML5 player(in browser, HTML5)
Click here to listen with your own player(launches your MP3 player)

CYQT 240036Z 06008KT 10SM -SHRA BKN046TCU OVC150 19/17 A2980 RMK TCU5AC3 SLP095 DENSITY ALT 1500FT

CYQT Flight Activity (Flightaware)

Listeners: 1 out of 1376 total

Thunder Bay Ground: 121.900
Thunder Bay Tower: 118.100

CYRQ CTAF (Archives)
Trois-Rivieres, Quebec, Canada

Feed Status: UP
Listen in your browser - HTML5 player(in browser, HTML5)
Click here to listen with your own player(launches your MP3 player)

CYRQ 240056Z AUTO 15004KT 090V220 5SM HZ CLR 19/14 A3009 RMK SLP191 DENSITY ALT 600FT

CYRQ Flight Activity (Flightaware)

Listeners: 0 out of 1376 total

Trois-Rivieres CTAF/UNICOM: 122.350

CYRQ/CSR3 CTAF (Archives)
Trois-Rivieres, Quebec, Canada

Feed Status: UP
Listen in your browser - HTML5 player(in browser, HTML5)
Click here to listen with your own player(launches your MP3 player)

CYRQ 240056Z AUTO 15004KT 090V220 5SM HZ CLR 19/14 A3009 RMK SLP191 DENSITY ALT 600FT

CYRQ Flight Activity (Flightaware)

Listeners: 0 out of 1376 total

Trois-Rivieres CTAF/UNICOM: 122.350
Victoriaville CTAF/UNICOM: 123.350

CYSB Gnd/Twr/Center (Archives)
Sudbury, Ontario, Canada

Feed Status: UP
Listen in your browser - HTML5 player(in browser, HTML5)
Click here to listen with your own player(launches your MP3 player)

CYSB 240000Z 20009KT 20SM FEW060 BKN200 22/10 A3009 RMK CU1CI5 SLP193 DENSITY ALT 2100FT

CYSB Flight Activity (Flightaware)

Listeners: 0 out of 1376 total

Sudbury Ground: 121.800
Sudbury Tower: 125.500
Toronto Centre: 135.500

CYSC AWOS (Archives)
Sherbrooke, Quebec, Canada

Feed Status: UP
Listen in your browser - HTML5 player(in browser, HTML5)
Click here to listen with your own player(launches your MP3 player)

CYSC 240002Z AUTO VRB02KT 9SM CLR 18/13 A3010 RMK SLP196 DENSITY ALT 1200FT

CYSC Flight Activity (Flightaware)

Listeners: 0 out of 1376 total

Sherbrooke AWOS: 126.250

CYSC CTAF (Archives)
Sherbrooke, Quebec, Canada

Feed Status: UP
Listen in your browser - HTML5 player(in browser, HTML5)
Click here to listen with your own player(launches your MP3 player)

CYSC 240002Z AUTO VRB02KT 9SM CLR 18/13 A3010 RMK SLP196 DENSITY ALT 1200FT

CYSC Flight Activity (Flightaware)

Listeners: 0 out of 1376 total

Sherbrooke CTAF: 123.500

CYSC Emergency/Guard (Archives)
Sherbrooke, Quebec, Canada

Feed Status: UP
Listen in your browser - HTML5 player(in browser, HTML5)
Click here to listen with your own player(launches your MP3 player)

CYSC 240002Z AUTO VRB02KT 9SM CLR 18/13 A3010 RMK SLP196 DENSITY ALT 1200FT

CYSC Flight Activity (Flightaware)

Listeners: 0 out of 1376 total

Emergency/Guard: 121.500

CYSC RCO/GCO (Archives)
Sherbrooke, Quebec, Canada

Feed Status: UP
Listen in your browser - HTML5 player(in browser, HTML5)
Click here to listen with your own player(launches your MP3 player)

CYSC 240002Z AUTO VRB02KT 9SM CLR 18/13 A3010 RMK SLP196 DENSITY ALT 1200FT

CYSC Flight Activity (Flightaware)

Listeners: 0 out of 1376 total

Sherbrooke RCO/GCO: 123.250

CYSC ZUL 132.55 (Archives)
Sherbrooke, Quebec, Canada

Feed Status: UP
Listen in your browser - HTML5 player(in browser, HTML5)
Click here to listen with your own player(launches your MP3 player)

CYSC 240002Z AUTO VRB02KT 9SM CLR 18/13 A3010 RMK SLP196 DENSITY ALT 1200FT

CYSC Flight Activity (Flightaware)

Listeners: 0 out of 1376 total

Montreal Center: 132.550

CYSC ZUL 133.225 (Archives)
Sherbrooke, Quebec, Canada

Feed Status: UP
Listen in your browser - HTML5 player(in browser, HTML5)
Click here to listen with your own player(launches your MP3 player)

CYSC 240002Z AUTO VRB02KT 9SM CLR 18/13 A3010 RMK SLP196 DENSITY ALT 1200FT

CYSC Flight Activity (Flightaware)

Listeners: 0 out of 1376 total

Montreal Center: 133.225

CYTS ATIS (Archives)
Timmins, Ontario, Canada

Feed Status: UP
Listen in your browser - HTML5 player(in browser, HTML5)
Click here to listen with your own player(launches your MP3 player)

CYTS 240000Z 17005KT 15SM FEW080 BKN260 BKN370 24/13 A3001 RMK AC1CI6CC1 CC TR CONTRAILS SLP167 DENSITY ALT 2100FT

CYTS Flight Activity (Flightaware)

Listeners: 0 out of 1376 total

Timmins ATIS: 124.950

CYTS FSS/Misc (Archives)
Timmins, Ontario, Canada

Feed Status: UP
Listen in your browser - HTML5 player(in browser, HTML5)
Click here to listen with your own player(launches your MP3 player)

CYTS 240000Z 17005KT 15SM FEW080 BKN260 BKN370 24/13 A3001 RMK AC1CI6CC1 CC TR CONTRAILS SLP167 DENSITY ALT 2100FT

CYTS Flight Activity (Flightaware)

Listeners: 0 out of 1376 total

Air Canada Jazz: 130.875
Air Creebec: 129.050
CTAF: 122.200
CTAF: 122.000
CTAF: 122.800
Field Maintenance: 122.600
FSS: 122.300
General Traffic: 126.700
London RDO: 123.550
South Porcupine: 123.300

CZUL ACC (Noranda Sector) (Archives)
Timmins, Ontario, Canada

Feed Status: UP
Listen in your browser - HTML5 player(in browser, HTML5)
Click here to listen with your own player(launches your MP3 player)

CYUL 240000Z 28004KT 30SM SCT062 SCT250 24/13 A3008 RMK SC3CC1 SLP187 DENSITY ALT 1000FT

CYUL Flight Activity (Flightaware)

Listeners: 0 out of 1376 total

Montreal Center (Brevoort Sector) : 133.200
Montreal Center (Brevoort Sector) : 134.850
Montreal Center (Brevoort Sector) : 132.800
Montreal Center (Caniapiscau Sector) : 119.400
Montreal Center (Chibougamau Sector) : 133.025
Montreal Center (Fontages Sector) : 134.325
Montreal Center (LaGrande Sector) : 133.775
Montreal Center (Moosonee Sector*) : 118.975
Montreal Center (Noranda Sector) : 133.975
Montreal Center (Rouyn Sector*): 120.725
Montreal Center (Unknown Sector) : 132.675

Toronto Center (Timmins) (Archives)
Timmins, Ontario, Canada

Feed Status: UP
Listen in your browser - HTML5 player(in browser, HTML5)
Click here to listen with your own player(launches your MP3 player)

CZYZ Flight Activity (Flightaware)

Listeners: 0 out of 1376 total

Moosonee CYMO: 133.725
North Bay CYYB (8pm-7am M-F and 24h Sat-Sun): 127.250
Sudbury CYSB (8pm-7am M-F and 24h Sat-Sun): 135.500
Toronto Center (North Bay High Sector): 121.225
Toronto Center (Sault High Sector): 134.425
Toronto Center (Sault Low Elliot Lake Sector): 135.400
Toronto Center (Timmins Sector): 128.300
Toronto Center (Wawa Sector): 124.075

CYTZ Approach (Archives)
Toronto, Ontario, Canada

Feed Status: UP
Listen in your browser - HTML5 player(in browser, HTML5)
Click here to listen with your own player(launches your MP3 player)

CYTZ 240000Z AUTO 14005KT 9SM CLR 23/15 A3009 RMK SLP192 DENSITY ALT 1100FT

CYTZ Flight Activity (Flightaware)

Listeners: 0 out of 1376 total

Toronto Terminal (East): 133.400

CYTZ Tower (Archives)
Toronto, Ontario, Canada

Feed Status: UP
Listen in your browser - HTML5 player(in browser, HTML5)
Click here to listen with your own player(launches your MP3 player)

CYTZ 240000Z AUTO 14005KT 9SM CLR 23/15 A3009 RMK SLP192 DENSITY ALT 1100FT

CYTZ Flight Activity (Flightaware)

Listeners: 0 out of 1376 total

Island (Billy Bishop) Tower: 118.200

Toronto Terminal (West Satellite) #1 (Archives)
Toronto, Ontario, Canada

Feed Status: UP
Listen in your browser - HTML5 player(in browser, HTML5)
Click here to listen with your own player(launches your MP3 player)

CYTZ 240000Z AUTO 14005KT 9SM CLR 23/15 A3009 RMK SLP192 DENSITY ALT 1100FT

CYTZ Flight Activity (Flightaware)

Listeners: 0 out of 1376 total

Toronto Terminal (West Satellite): 119.300

CYUL Approach/Departure (Archives)
Montreal, Quebec, Canada

Feed Status: UP
Listen in your browser - HTML5 player(in browser, HTML5)
Click here to listen with your own player(launches your MP3 player)

CYUL 240000Z 28004KT 30SM SCT062 SCT250 24/13 A3008 RMK SC3CC1 SLP187 DENSITY ALT 1000FT

CYUL Flight Activity (Flightaware)

Listeners: 3 out of 1376 total

Montreal Terminal: 126.900
Montreal Terminal: 124.650
Montreal Terminal: 118.900
Montreal Terminal: 132.850
Montreal Terminal: 125.150
Montreal Terminal: 120.425
VFR Advisory: 134.150

CYUL De-icing Ops (Archives)
Montreal, Quebec, Canada

Feed Status: UP
Listen in your browser - HTML5 player(in browser, HTML5)
Click here to listen with your own player(launches your MP3 player)

CYUL 240000Z 28004KT 30SM SCT062 SCT250 24/13 A3008 RMK SC3CC1 SLP187 DENSITY ALT 1000FT

CYUL Flight Activity (Flightaware)

Listeners: 0 out of 1376 total

Emergency Comms: 123.175
Emergency Comms: 122.675
Emergency/Guard: 121.500
Montreal De-icing Coordinator: 123.125
Montreal De-icing Traffic: 122.525

CYUL Del/Ground/Apron (Archives)
Montreal, Quebec, Canada

Feed Status: UP
Listen in your browser - HTML5 player(in browser, HTML5)
Click here to listen with your own player(launches your MP3 player)

CYUL 240000Z 28004KT 30SM SCT062 SCT250 24/13 A3008 RMK SC3CC1 SLP187 DENSITY ALT 1000FT

CYUL Flight Activity (Flightaware)

Listeners: 0 out of 1376 total

Montreal Apron: 122.075
Montreal Clearance Delivery: 125.600
Montreal Ground (East): 121.900
Montreal Ground (West): 121.000

CYUL Tower (Archives)
Montreal, Quebec, Canada

Feed Status: UP
Listen in your browser - HTML5 player(in browser, HTML5)
Click here to listen with your own player(launches your MP3 player)

CYUL 240000Z 28004KT 30SM SCT062 SCT250 24/13 A3008 RMK SC3CC1 SLP187 DENSITY ALT 1000FT

CYUL Flight Activity (Flightaware)

Listeners: 2 out of 1376 total

Montreal Tower: 119.900
Montreal Tower: 119.300
Montreal Tower: 124.300

CZUL Center (Montreal) (Archives)
Montreal, Quebec, Canada

Feed Status: UP
Listen in your browser - HTML5 player(in browser, HTML5)
Click here to listen with your own player(launches your MP3 player)

CYUL 240000Z 28004KT 30SM SCT062 SCT250 24/13 A3008 RMK SC3CC1 SLP187 DENSITY ALT 1000FT

CYUL Flight Activity (Flightaware)

Listeners: 4 out of 1376 total

Montreal Center (Aylmer Sector - FL290 and above): 134.400
Montreal Center (Drummond Sector - FL280 and above): 133.225
Montreal Center (Granby Sector - FL280 and above): 132.350
Montreal Center (Granby Sector - FL280 and below): 132.550
Montreal Center (Laurier Sector - FL280 and below): 126.575
Montreal Center (Laurier Sector - FL290 and below): 135.600
Montreal Center (Levis Sector - FL290 and above): 123.925
Montreal Center (Pontiac Sector - FL290 and above): 127.875
Montreal Center (Rawdon Sector - FL290 and below): 128.225
Montreal Center (Thurso Sector - FL280 and below): 128.775

CZUL Center (Vallie Sector) (Archives)
Montreal, Quebec, Canada

Feed Status: UP
Listen in your browser - HTML5 player(in browser, HTML5)
Click here to listen with your own player(launches your MP3 player)

CZUL Flight Activity (Flightaware)

Listeners: 0 out of 1376 total

Montreal Center (Vallie Sector FL280/below): 134.975

CYVK CTAF/UNICOM
Vernon, British Columbia, Canada

Feed Status: DOWN
Offline since: 2021-07-01 14:51:39 UTC

Vernon CTAF/UNICOM: 122.800

CYVO Gnd/RDO/Center (Archives)
Val-D'Or, Quebec, Canada

Feed Status: UP
Listen in your browser - HTML5 player(in browser, HTML5)
Click here to listen with your own player(launches your MP3 player)

CYVO 240000Z 21004KT 15SM FEW070 23/10 A3009 RMK AC1 AC TR SLP196 DENSITY ALT 2100FT

CYVO Flight Activity (Flightaware)

Listeners: 0 out of 1376 total

Emergency/Guard: 121.500
Montreal Centre: 125.900
Rouyn RDO (FSS): 118.500
Val-d'Or Ground Services: 122.600
Val-D'Or VFR En Route: 126.700

CYVR App/Dep #1 (Archives)
Vancouver, British Columbia, Canada

Feed Status: UP
Listen in your browser - HTML5 player(in browser, HTML5)
Click here to listen with your own player(launches your MP3 player)

CYVR 240000Z 23009KT 30SM FEW047 FEW070 FEW180 FEW230 22/11 A3023 RMK CU1AC1AC1CS1 CU TR AC TR AC TR SLP239 DENSITY ALT 500FT

CYVR Flight Activity (Flightaware)

Listeners: 0 out of 1376 total

Vancouver Terminal (Arrival High Outer): 128.600
Vancouver Terminal (Arrival Inner): 134.225
Vancouver Terminal (Arrival Low Inner): 133.100
Vancouver Terminal (Arrival Outer): 128.175
Vancouver Terminal (Departure North): 126.125
Vancouver Terminal (Departure South): 132.300
Vancouver Terminal (Departure South): 132.300
Vancouver Terminal (TRSA): 125.200

CYVR App/Dep #2 (Archives)
Vancouver, British Columbia, Canada

Feed Status: UP
Listen in your browser - HTML5 player(in browser, HTML5)
Click here to listen with your own player(launches your MP3 player)

CYVR 240000Z 23009KT 30SM FEW047 FEW070 FEW180 FEW230 22/11 A3023 RMK CU1AC1AC1CS1 CU TR AC TR AC TR SLP239 DENSITY ALT 500FT

CYVR Flight Activity (Flightaware)

Listeners: 0 out of 1376 total

Vancouver Terminal (Arrival High Outer): 128.600
Vancouver Terminal (Arrival Low Inner): 133.100
Vancouver Terminal (Departure North): 126.125
Vancouver Terminal (Departure South): 132.300
Vancouver Terminal (ILS Monitor): 120.500
Vancouver Terminal (ILS Monitor): 128.175
Vancouver Terminal (TRSA): 125.200

CYVR Del/Gnd (Archives)
Vancouver, British Columbia, Canada

Feed Status: UP
Listen in your browser - HTML5 player(in browser, HTML5)
Click here to listen with your own player(launches your MP3 player)

CYVR 240000Z 23009KT 30SM FEW047 FEW070 FEW180 FEW230 22/11 A3023 RMK CU1AC1AC1CS1 CU TR AC TR AC TR SLP239 DENSITY ALT 500FT

CYVR Flight Activity (Flightaware)

Listeners: 0 out of 1376 total

Emergency (Discrete): 122.675
Vancouver Clearance Delivery: 121.400
Vancouver Ground (North): 121.700
Vancouver Ground (South): 127.150

CYVR Del/Gnd/Twr #1 (Archives)
Vancouver, British Columbia, Canada

Feed Status: UP
Listen in your browser - HTML5 player(in browser, HTML5)
Click here to listen with your own player(launches your MP3 player)

CYVR 240000Z 23009KT 30SM FEW047 FEW070 FEW180 FEW230 22/11 A3023 RMK CU1AC1AC1CS1 CU TR AC TR AC TR SLP239 DENSITY ALT 500FT

CYVR Flight Activity (Flightaware)

Listeners: 1 out of 1376 total

Emergency (Discrete): 122.675
Vancouver Clearance Delivery: 121.400
Vancouver Ground (North): 121.700
Vancouver Ground (South): 127.150
Vancouver Tower (Backup): 120.150
Vancouver Tower (North): 119.550
Vancouver Tower (Outer): 124.000
Vancouver Tower (South): 118.700
Vancouver Tower (VFR): 125.650

CYVR Del/Gnd/Twr/App (Archives)
Vancouver, British Columbia, Canada

Feed Status: UP
Listen in your browser - HTML5 player(in browser, HTML5)
Click here to listen with your own player(launches your MP3 player)

CYVR 240000Z 23009KT 30SM FEW047 FEW070 FEW180 FEW230 22/11 A3023 RMK CU1AC1AC1CS1 CU TR AC TR AC TR SLP239 DENSITY ALT 500FT

CYVR Flight Activity (Flightaware)

Listeners: 0 out of 1376 total

Vancouver Clearance Delivery: 121.400
Vancouver Ground (North): 127.150
Vancouver Ground (South): 121.700
Vancouver Terminal (Departures): 132.300
Vancouver Terminal (Departures): 126.125
Vancouver Terminal (Hi, Outer): 128.600
Vancouver Terminal (ILS Monitor): 128.175
Vancouver Terminal (Lo, Inner): 133.100
Vancouver Terminal (TRSA): 125.200
Vancouver Tower: 125.650
Vancouver Tower (Backup): 120.150
Vancouver Tower (North): 119.550
Vancouver Tower (Outer): 124.000
Vancouver Tower (South): 118.700

CYVR Tower (Archives)
Vancouver, British Columbia, Canada

Feed Status: UP
Listen in your browser - HTML5 player(in browser, HTML5)
Click here to listen with your own player(launches your MP3 player)

CYVR 240000Z 23009KT 30SM FEW047 FEW070 FEW180 FEW230 22/11 A3023 RMK CU1AC1AC1CS1 CU TR AC TR AC TR SLP239 DENSITY ALT 500FT

CYVR Flight Activity (Flightaware)

Listeners: 0 out of 1376 total

Vancouver Tower (Backup): 120.150
Vancouver Tower (North): 119.550
Vancouver Tower (Outer): 124.000
Vancouver Tower (South): 118.700
Vancouver Tower (VFR): 125.650

CZVR Vancouver ACC (Archives)
Vancouver, British Columbia, Canada

Feed Status: UP
Listen in your browser - HTML5 player(in browser, HTML5)
Click here to listen with your own player(launches your MP3 player)

CYVR 240000Z 23009KT 30SM FEW047 FEW070 FEW180 FEW230 22/11 A3023 RMK CU1AC1AC1CS1 CU TR AC TR AC TR SLP239 DENSITY ALT 500FT

CYVR Flight Activity (Flightaware)

Listeners: 3 out of 1376 total

ARINC En Route (SFO): 129.400
Vancouver East (Bruce Peak): 125.950
Vancouver East (Simulcast): 135.325
Vancouver East (Vancouver): 133.700
Vancouver North (Bruce Peak): 134.400
Vancouver North (Simulcast): 127.925
Vancouver West (Tofino): 132.900
Vancouver West (Tofino): 134.925
Vancouver West (Vancouver): 134.800

CYWG App/Dep (Archives)
Winnipeg, Manitoba, Canada

Feed Status: UP
Listen in your browser - HTML5 player(in browser, HTML5)
Click here to listen with your own player(launches your MP3 player)

CYWG 240000Z 30010G15KT 12SM SKC 31/12 A2976 RMK FU SLP076 DENSITY ALT 3000FT

CYWG Flight Activity (Flightaware)

Listeners: 1 out of 1376 total

Winnipeg Approach/Departure: 119.500
Winnipeg Approach/Departure: 119.900
Winnipeg Approach/Departure: 121.000

CYWG ATIS (Archives)
Winnipeg, Manitoba, Canada

Feed Status: UP
Listen in your browser - HTML5 player(in browser, HTML5)
Click here to listen with your own player(launches your MP3 player)

CYWG 240000Z 30010G15KT 12SM SKC 31/12 A2976 RMK FU SLP076 DENSITY ALT 3000FT

CYWG Flight Activity (Flightaware)

Listeners: 1 out of 1376 total

Winnipeg ATIS: 120.200

CYWG Center (Archives)
Winnipeg, Manitoba, Canada

Feed Status: UP
Listen in your browser - HTML5 player(in browser, HTML5)
Click here to listen with your own player(launches your MP3 player)

CYWG 240000Z 30010G15KT 12SM SKC 31/12 A2976 RMK FU SLP076 DENSITY ALT 3000FT

CYWG Flight Activity (Flightaware)

Listeners: 2 out of 1376 total

Winnipeg Center: 132.250
Winnipeg Center: 134.400

CYWG Del/Gnd/Twr (Archives)
Winnipeg, Manitoba, Canada

Feed Status: UP
Listen in your browser - HTML5 player(in browser, HTML5)
Click here to listen with your own player(launches your MP3 player)

CYWG 240000Z 30010G15KT 12SM SKC 31/12 A2976 RMK FU SLP076 DENSITY ALT 3000FT

CYWG Flight Activity (Flightaware)

Listeners: 4 out of 1376 total

Winnipeg Clearance: 121.300
Winnipeg Ground: 121.900
Winnipeg Tower: 118.300

CYWH FISE/Terminal (Archives)
Victoria, British Columbia, Canada

Feed Status: UP
Listen in your browser - HTML5 player(in browser, HTML5)
Click here to listen with your own player(launches your MP3 player)

CYWH 240000Z 20008KT 110V240 15SM FEW040 SCT070 19/13 A3023 RMK SC2AC1 SLP238 DENSITY ALT 200FT

CYWH Flight Activity (Flightaware)

Listeners: 0 out of 1376 total

Pacific Radio (FISE): 125.850
Victoria Harbour Radio: 122.200
Victoria Terminal: 127.800

CYXE Gnd/Tower (Archives)
Saskatoon, Saskatchewan, Canada

Feed Status: UP
Listen in your browser - HTML5 player(in browser, HTML5)
Click here to listen with your own player(launches your MP3 player)

CYXE 240000Z 28024G32KT 15SM FEW300 27/01 A2983 RMK CI1 SLP109 DENSITY ALT 3600FT

CYXE Flight Activity (Flightaware)

Listeners: 0 out of 1376 total

Saskatoon Ground: 121.900
Saskatoon Tower: 118.300

CYXE Terminal (App/Dep) (Archives)
Saskatoon, Saskatchewan, Canada

Feed Status: UP
Listen in your browser - HTML5 player(in browser, HTML5)
Click here to listen with your own player(launches your MP3 player)

CYXE 240000Z 28024G32KT 15SM FEW300 27/01 A2983 RMK CI1 SLP109 DENSITY ALT 3600FT

CYXE Flight Activity (Flightaware)

Listeners: 0 out of 1376 total

Edmonton RDO: 122.500
Emergency/Guard: 121.500
Saskatoon Arrival/Departure: 119.900

Winnipeg Centre (CYXE Area) (Archives)
Saskatoon, Saskatchewan, Canada

Feed Status: UP
Listen in your browser - HTML5 player(in browser, HTML5)
Click here to listen with your own player(launches your MP3 player)

CYXE 240000Z 28024G32KT 15SM FEW300 27/01 A2983 RMK CI1 SLP109 DENSITY ALT 3600FT

CYXE Flight Activity (Flightaware)

Listeners: 0 out of 1376 total

Winnipeg Centre (Prince Albert Sector): 133.100
Winnipeg Centre (Waskesiu Sector): 134.325
Winnipeg FIC: 126.700
Winnipeg FIC: 122.375

CYXU App/Dep (London Sector) (Archives)
London, Ontario, Canada

Feed Status: UP
Listen in your browser - HTML5 player(in browser, HTML5)
Click here to listen with your own player(launches your MP3 player)

CYXU 240000Z 19007KT 15SM FEW070 FEW100 22/12 A3012 RMK AC1AC1 SLP199 DENSITY ALT 1700FT

CYXU Flight Activity (Flightaware)

Listeners: 0 out of 1376 total

Toronto Center (London Sector): 135.300

CYXU Ground (Archives)
London, Ontario, Canada

Feed Status: UP
Listen in your browser - HTML5 player(in browser, HTML5)
Click here to listen with your own player(launches your MP3 player)

CYXU 240000Z 19007KT 15SM FEW070 FEW100 22/12 A3012 RMK AC1AC1 SLP199 DENSITY ALT 1700FT

CYXU Flight Activity (Flightaware)

Listeners: 0 out of 1376 total

London Ground: 121.900

CYXU Tower (Archives)
London, Ontario, Canada

Feed Status: UP
Listen in your browser - HTML5 player(in browser, HTML5)
Click here to listen with your own player(launches your MP3 player)

CYXU 240000Z 19007KT 15SM FEW070 FEW100 22/12 A3012 RMK AC1AC1 SLP199 DENSITY ALT 1700FT

CYXU Flight Activity (Flightaware)

Listeners: 0 out of 1376 total

London Tower: 119.400

CZYZ Toronto Center (Kitchener Sector) (Archives)
London, Ontario, Canada

Feed Status: UP
Listen in your browser - HTML5 player(in browser, HTML5)
Click here to listen with your own player(launches your MP3 player)

CYXU 240000Z 19007KT 15SM FEW070 FEW100 22/12 A3012 RMK AC1AC1 SLP199 DENSITY ALT 1700FT

CYXU Flight Activity (Flightaware)

Listeners: 0 out of 1376 total

Toronto Center (Kitchener Sector): 135.625

CZYZ Toronto Center (Lucan Sector) (Archives)
London, Ontario, Canada

Feed Status: UP
Listen in your browser - HTML5 player(in browser, HTML5)
Click here to listen with your own player(launches your MP3 player)

CYXU 240000Z 19007KT 15SM FEW070 FEW100 22/12 A3012 RMK AC1AC1 SLP199 DENSITY ALT 1700FT

CYXU Flight Activity (Flightaware)

Listeners: 0 out of 1376 total

Toronto Center (Lucan Sector): 135.825

CYYB RDO/CTAF (Archives)
North Bay, Ontario, Canada

Feed Status: UP
Listen in your browser - HTML5 player(in browser, HTML5)
Click here to listen with your own player(launches your MP3 player)

CYYB 240000Z 00000KT 25SM FEW045 FEW300 22/12 A3011 RMK CU1CI1 CU TR WND ESTD SLP198 DENSITY ALT 2100FT

CYYB Flight Activity (Flightaware)

Listeners: 1 out of 1376 total

North Bay RDO/CTAF: 118.300

CYYB Toronto Center (Archives)
North Bay, Ontario, Canada

Feed Status: UP
Listen in your browser - HTML5 player(in browser, HTML5)
Click here to listen with your own player(launches your MP3 player)

CYYB 240000Z 00000KT 25SM FEW045 FEW300 22/12 A3011 RMK CU1CI1 CU TR WND ESTD SLP198 DENSITY ALT 2100FT

CYYB Flight Activity (Flightaware)

Listeners: 0 out of 1376 total

Toronto Center: 127.250

CYYC App/Dep (Archives)
Calgary, Alberta, Canada

Feed Status: UP
Listen in your browser - HTML5 player(in browser, HTML5)
Click here to listen with your own player(launches your MP3 player)

CYYC 240000Z 28017G25KT 14SM FEW120 FEW210 27/M02 A2999 RMK ACC1CI1 CI TR DIST FU ALL HRZNS SLP154 DENSITY ALT 5700FT

CYYC Flight Activity (Flightaware)

Listeners: 1 out of 1376 total

Calgary Arrivals: 125.900
Calgary Departures: 119.800

CYYC Tower #1 (Archives)
Calgary, Alberta, Canada

Feed Status: UP
Listen in your browser - HTML5 player(in browser, HTML5)
Click here to listen with your own player(launches your MP3 player)

CYYC 240000Z 28017G25KT 14SM FEW120 FEW210 27/M02 A2999 RMK ACC1CI1 CI TR DIST FU ALL HRZNS SLP154 DENSITY ALT 5700FT

CYYC Flight Activity (Flightaware)

Listeners: 1 out of 1376 total

Calgary Tower: 118.400

CYYC Twr/App/Center (Archives)
Calgary, Alberta, Canada

Feed Status: UP
Listen in your browser - HTML5 player(in browser, HTML5)
Click here to listen with your own player(launches your MP3 player)

CYYC 240000Z 28017G25KT 14SM FEW120 FEW210 27/M02 A2999 RMK ACC1CI1 CI TR DIST FU ALL HRZNS SLP154 DENSITY ALT 5700FT

CYYC Flight Activity (Flightaware)

Listeners: 1 out of 1376 total

Calgary Arrivals: 125.900
Calgary Departures: 119.800
Calgary Tower: 118.400
Edmonton Center (Banff Sector): 133.300

CYYC Twr/App/Dep (Archives)
Calgary, Alberta, Canada

Feed Status: UP
Listen in your browser - HTML5 player(in browser, HTML5)
Click here to listen with your own player(launches your MP3 player)

CYYC 240000Z 28017G25KT 14SM FEW120 FEW210 27/M02 A2999 RMK ACC1CI1 CI TR DIST FU ALL HRZNS SLP154 DENSITY ALT 5700FT

CYYC Flight Activity (Flightaware)

Listeners: 1 out of 1376 total

Calgary Arrivals: 125.900
Calgary Departures: 119.800
Calgary Tower: 118.400

CYYJ Gnd/Twr
Victoria, British Columbia, Canada

Feed Status: DOWN
Offline since: 2021-07-22 22:58:38 UTC

CYYJ 240000Z 11006KT 30SM FEW050 SCT074 19/11 A3024 RMK SC1AC3 SC TR SLP241 DENSITY ALT 200FT

Victoria Ground: 121.900
Victoria Tower (Inner): 119.700
Victoria Tower (Outer): 119.100

CYYR Del/Gnd/Twr/App #1 (Archives)
Goose Bay, Newfoundland, Canada

Feed Status: UP
Listen in your browser - HTML5 player(in browser, HTML5)
Click here to listen with your own player(launches your MP3 player)

CYYR 240000Z 02007KT 15SM FEW030TCU FEW070 FEW240 17/11 A3001 RMK TCU1AC2CI1 SLP164

CYYR Flight Activity (Flightaware)

Listeners: 0 out of 1376 total

Goose Bay Clearance Delivery: 118.100
Goose Bay Ground: 121.900
Goose Bay Terminal: 119.500
Goose Bay Tower: 119.100
Halifax Radio: 126.700
Halifax Radio (FIS): 123.475
PAR: 119.900
Ranger Base: 129.300
Wing Ops: 129.850

CYYR Del/Gnd/Twr/App #2 (Archives)
Goose Bay, Newfoundland, Canada

Feed Status: UP
Listen in your browser - HTML5 player(in browser, HTML5)
Click here to listen with your own player(launches your MP3 player)

CYYR 240000Z 02007KT 15SM FEW030TCU FEW070 FEW240 17/11 A3001 RMK TCU1AC2CI1 SLP164

CYYR Flight Activity (Flightaware)

Listeners: 0 out of 1376 total

Goose Bay Clearance Delivery: 118.100
Goose Bay Ground: 121.900
Goose Bay Terminal: 119.500
Goose Bay Tower: 119.100
Halifax Radio: 126.700
Halifax Radio (FIS): 123.475
PAR: 119.900
Ranger Base: 129.300
Wing Ops: 129.850

CYYR Del/Gnd/Twr/App/Center (Archives)
Goose Bay, Newfoundland, Canada

Feed Status: UP
Listen in your browser - HTML5 player(in browser, HTML5)
Click here to listen with your own player(launches your MP3 player)

CYYR 240000Z 02007KT 15SM FEW030TCU FEW070 FEW240 17/11 A3001 RMK TCU1AC2CI1 SLP164

CYYR Flight Activity (Flightaware)

Listeners: 1 out of 1376 total

Gander Center (FL280 and below): 120.400
Gander Center (FL290 and above): 133.425
Gander Center (FL290 and above): 132.400
Gander Center (FL290 and above): 127.675
Goose Bay Clearance Delivery: 118.100
Goose Bay Ground: 121.900
Goose Bay Terminal: 119.500
Goose Bay Tower: 119.100
Halifax Radio: 126.700
Halifax Radio (FIS): 123.475
PAR: 119.900
Ranger Base: 129.300
Wing Ops: 129.850

CYYR Gander Center (Archives)
Goose Bay, Newfoundland, Canada

Feed Status: UP
Listen in your browser - HTML5 player(in browser, HTML5)
Click here to listen with your own player(launches your MP3 player)

CYYR 240000Z 02007KT 15SM FEW030TCU FEW070 FEW240 17/11 A3001 RMK TCU1AC2CI1 SLP164

CYYR Flight Activity (Flightaware)

Listeners: 0 out of 1376 total

Gander Center (FL280 and below): 120.400
Gander Center (FL290 and above): 127.675
Gander Center (FL290 and above): 132.400
Gander Center (FL290 and above): 133.425

CYYT ATIS (Archives)
St. John's, Newfoundland, Canada

Feed Status: UP
Listen in your browser - HTML5 player(in browser, HTML5)
Click here to listen with your own player(launches your MP3 player)

CYYT 240000Z 14005KT 1/4SM R11/1600V2400FT/N R16/2600V4500FT/N FG VV001 13/13 A2993 RMK FG8 SLP138

CYYT Flight Activity (Flightaware)

Listeners: 0 out of 1376 total

St. John's ATIS: 128.000

CYYT Ground (Archives)
St. John's, Newfoundland, Canada

Feed Status: UP
Listen in your browser - HTML5 player(in browser, HTML5)
Click here to listen with your own player(launches your MP3 player)

CYYT 240000Z 14005KT 1/4SM R11/1600V2400FT/N R16/2600V4500FT/N FG VV001 13/13 A2993 RMK FG8 SLP138

CYYT Flight Activity (Flightaware)

Listeners: 0 out of 1376 total

St. John's Ground: 121.900

CYYT Ground/Tower (Archives)
St. John's, Newfoundland, Canada

Feed Status: UP
Listen in your browser - HTML5 player(in browser, HTML5)
Click here to listen with your own player(launches your MP3 player)

CYYT 240000Z 14005KT 1/4SM R11/1600V2400FT/N R16/2600V4500FT/N FG VV001 13/13 A2993 RMK FG8 SLP138

CYYT Flight Activity (Flightaware)

Listeners: 1 out of 1376 total

St. John's Ground: 121.900
St. John's Tower: 120.600

CYYT Tower (Archives)
St. John's, Newfoundland, Canada

Feed Status: UP
Listen in your browser - HTML5 player(in browser, HTML5)
Click here to listen with your own player(launches your MP3 player)

CYYT 240000Z 14005KT 1/4SM R11/1600V2400FT/N R16/2600V4500FT/N FG VV001 13/13 A2993 RMK FG8 SLP138

CYYT Flight Activity (Flightaware)

Listeners: 0 out of 1376 total

St. John's Tower: 120.600

Gander Center 133.150 (Archives)
St. John's, Newfoundland, Canada

Feed Status: UP
Listen in your browser - HTML5 player(in browser, HTML5)
Click here to listen with your own player(launches your MP3 player)

CYYT 240000Z 14005KT 1/4SM R11/1600V2400FT/N R16/2600V4500FT/N FG VV001 13/13 A2993 RMK FG8 SLP138

CYYT Flight Activity (Flightaware)

Listeners: 1 out of 1376 total

Gander Center: 133.150

Gander Radio 122.375 (Archives)
St. John's, Newfoundland, Canada

Feed Status: UP
Listen in your browser - HTML5 player(in browser, HTML5)
Click here to listen with your own player(launches your MP3 player)

CYYT 240000Z 14005KT 1/4SM R11/1600V2400FT/N R16/2600V4500FT/N FG VV001 13/13 A2993 RMK FG8 SLP138

CYYT Flight Activity (Flightaware)

Listeners: 0 out of 1376 total

Gander Radio (International Air Radio): 122.375

CYYZ Apron (Archives)
Toronto, Ontario, Canada

Feed Status: UP
Listen in your browser - HTML5 player(in browser, HTML5)
Click here to listen with your own player(launches your MP3 player)

CYYZ 240000Z 15005KT 15SM FEW075 FEW250 23/13 A3010 RMK AC1CI1 SLP194 DENSITY ALT 1500FT

CYYZ Flight Activity (Flightaware)

Listeners: 0 out of 1376 total

Toronto Apron (Backup): 122.825
Toronto Apron (North): 122.275
Toronto Apron (South): 122.075

CYYZ Apron (Backup) (Archives)
Toronto, Ontario, Canada

Feed Status: UP
Listen in your browser - HTML5 player(in browser, HTML5)
Click here to listen with your own player(launches your MP3 player)

CYYZ 240000Z 15005KT 15SM FEW075 FEW250 23/13 A3010 RMK AC1CI1 SLP194 DENSITY ALT 1500FT

CYYZ Flight Activity (Flightaware)

Listeners: 0 out of 1376 total

Toronto Apron (Backup): 122.825

CYYZ Apron (North) (Archives)
Toronto, Ontario, Canada

Feed Status: UP
Listen in your browser - HTML5 player(in browser, HTML5)
Click here to listen with your own player(launches your MP3 player)

CYYZ 240000Z 15005KT 15SM FEW075 FEW250 23/13 A3010 RMK AC1CI1 SLP194 DENSITY ALT 1500FT

CYYZ Flight Activity (Flightaware)

Listeners: 0 out of 1376 total

Toronto Apron (North): 122.275

CYYZ Apron (South) (Archives)
Toronto, Ontario, Canada

Feed Status: UP
Listen in your browser - HTML5 player(in browser, HTML5)
Click here to listen with your own player(launches your MP3 player)

CYYZ 240000Z 15005KT 15SM FEW075 FEW250 23/13 A3010 RMK AC1CI1 SLP194 DENSITY ALT 1500FT

CYYZ Flight Activity (Flightaware)

Listeners: 0 out of 1376 total

Toronto Apron (South): 122.075

CYYZ Apron Coordinator (Archives)
Toronto, Ontario, Canada

Feed Status: UP
Listen in your browser - HTML5 player(in browser, HTML5)
Click here to listen with your own player(launches your MP3 player)

CYYZ 240000Z 15005KT 15SM FEW075 FEW250 23/13 A3010 RMK AC1CI1 SLP194 DENSITY ALT 1500FT

CYYZ Flight Activity (Flightaware)

Listeners: 0 out of 1376 total

Toronto Apron Coordinator: 122.875

CYYZ Arrival (Archives)
Toronto, Ontario, Canada

Feed Status: UP
Listen in your browser - HTML5 player(in browser, HTML5)
Click here to listen with your own player(launches your MP3 player)

CYYZ 240000Z 15005KT 15SM FEW075 FEW250 23/13 A3010 RMK AC1CI1 SLP194 DENSITY ALT 1500FT

CYYZ Flight Activity (Flightaware)

Listeners: 0 out of 1376 total

Toronto Terminal (Arrivals): 132.800
Toronto Terminal (Arrivals): 124.475
Toronto Terminal (Arrivals): 125.400

CYYZ ATIS (Archives)
Toronto, Ontario, Canada

Feed Status: UP
Listen in your browser - HTML5 player(in browser, HTML5)
Click here to listen with your own player(launches your MP3 player)

CYYZ 240000Z 15005KT 15SM FEW075 FEW250 23/13 A3010 RMK AC1CI1 SLP194 DENSITY ALT 1500FT

CYYZ Flight Activity (Flightaware)

Listeners: 0 out of 1376 total

Toronto ATIS: 120.825

CYYZ Clearance Delivery (Archives)
Toronto, Ontario, Canada

Feed Status: UP
Listen in your browser - HTML5 player(in browser, HTML5)
Click here to listen with your own player(launches your MP3 player)

CYYZ 240000Z 15005KT 15SM FEW075 FEW250 23/13 A3010 RMK AC1CI1 SLP194 DENSITY ALT 1500FT

CYYZ Flight Activity (Flightaware)

Listeners: 0 out of 1376 total

Emergency/Guard: 121.500
Toronto Clearance Delivery: 121.300

CYYZ Departure (Archives)
Toronto, Ontario, Canada

Feed Status: UP
Listen in your browser - HTML5 player(in browser, HTML5)
Click here to listen with your own player(launches your MP3 player)

CYYZ 240000Z 15005KT 15SM FEW075 FEW250 23/13 A3010 RMK AC1CI1 SLP194 DENSITY ALT 1500FT

CYYZ Flight Activity (Flightaware)

Listeners: 3 out of 1376 total

Toronto Departure: 127.575
Toronto Departure: 128.800

CYYZ Ground (Archives)
Toronto, Ontario, Canada

Feed Status: UP
Listen in your browser - HTML5 player(in browser, HTML5)
Click here to listen with your own player(launches your MP3 player)

CYYZ 240000Z 15005KT 15SM FEW075 FEW250 23/13 A3010 RMK AC1CI1 SLP194 DENSITY ALT 1500FT

CYYZ Flight Activity (Flightaware)

Listeners: 2 out of 1376 total

Toronto Ground: 119.100
Toronto Ground: 121.650
Toronto Ground: 121.900

CYYZ Tower (Archives)
Toronto, Ontario, Canada

Feed Status: UP
Listen in your browser - HTML5 player(in browser, HTML5)
Click here to listen with your own player(launches your MP3 player)

CYYZ 240000Z 15005KT 15SM FEW075 FEW250 23/13 A3010 RMK AC1CI1 SLP194 DENSITY ALT 1500FT

CYYZ Flight Activity (Flightaware)

Listeners: 8 out of 1376 total

Pearson Tower (North): 118.700
Pearson Tower (South): 118.350

Toronto Center (Barrie) (Archives)
Toronto, Ontario, Canada

Feed Status: UP
Listen in your browser - HTML5 player(in browser, HTML5)
Click here to listen with your own player(launches your MP3 player)

CZYZ Flight Activity (Flightaware)

Listeners: 2 out of 1376 total

Toronto Center (Barrie Sector, East High): 134.575

Toronto Center (East Satellite) (Archives)
Toronto, Ontario, Canada

Feed Status: UP
Listen in your browser - HTML5 player(in browser, HTML5)
Click here to listen with your own player(launches your MP3 player)

CZYZ Flight Activity (Flightaware)

Listeners: 0 out of 1376 total

Toronto Center (East Satellite Sector): 133.400

Toronto Center (Hamilton) #1 (Archives)
Toronto, Ontario, Canada

Feed Status: UP
Listen in your browser - HTML5 player(in browser, HTML5)
Click here to listen with your own player(launches your MP3 player)

CZYZ Flight Activity (Flightaware)

Listeners: 0 out of 1376 total

Toronto Center (Hamilton Sector, West Low): 132.475

Toronto Center (Hamilton) #2 (Archives)
Toronto, Ontario, Canada

Feed Status: UP
Listen in your browser - HTML5 player(in browser, HTML5)
Click here to listen with your own player(launches your MP3 player)

CYTZ 240000Z AUTO 14005KT 9SM CLR 23/15 A3009 RMK SLP192 DENSITY ALT 1100FT

CYTZ Flight Activity (Flightaware)

Listeners: 0 out of 1376 total

Toronto Center (Hamilton Sector, West Low): 132.475

Toronto Center (Oakville) (Archives)
Toronto, Ontario, Canada

Feed Status: UP
Listen in your browser - HTML5 player(in browser, HTML5)
Click here to listen with your own player(launches your MP3 player)

CZYZ Flight Activity (Flightaware)

Listeners: 0 out of 1376 total

Toronto Center (Oakville Sector, West High): 134.925

Toronto Terminal (West Satellite) #1 (Archives)
Toronto, Ontario, Canada

Feed Status: UP
Listen in your browser - HTML5 player(in browser, HTML5)
Click here to listen with your own player(launches your MP3 player)

CYTZ 240000Z AUTO 14005KT 9SM CLR 23/15 A3009 RMK SLP192 DENSITY ALT 1100FT

CYTZ Flight Activity (Flightaware)

Listeners: 0 out of 1376 total

Toronto Terminal (West Satellite): 119.300

CYZD CTAF/UNICOM (Archives)
Toronto, Ontario, Canada

Feed Status: UP
Listen in your browser - HTML5 player(in browser, HTML5)
Click here to listen with your own player(launches your MP3 player)

CYZD Flight Activity (Flightaware)

Listeners: 0 out of 1376 total

CYZD Downsview UNICOM: 126.200

CYZD Unicom/CYTZ Backup (Archives)
Toronto, Ontario, Canada

Feed Status: UP
Listen in your browser - HTML5 player(in browser, HTML5)
Click here to listen with your own player(launches your MP3 player)

CYZD Flight Activity (Flightaware)

Listeners: 0 out of 1376 total

CYTZ Tower (Backup): 119.200
CYZD Downsview UNICOM: 126.200

CYZD Weather (Archives)
Toronto, Ontario, Canada

Feed Status: UP
Listen in your browser - HTML5 player(in browser, HTML5)
Click here to listen with your own player(launches your MP3 player)

CYZD Flight Activity (Flightaware)

Listeners: 0 out of 1376 total

Downsview Weather: 122.975

CYZF Gnd/Twr/Center
Yellowknife, Northwest Territories, Canada

Feed Status: DOWN
Offline since: 2021-05-03 17:11:07 UTC

CYZF 240054Z 13006KT 15SM -SHRA SCT060TCU BKN100 BKN240 20/14 A2959 RMK TCU3AC3CI1 SLP026 DENSITY ALT 1800FT

Edmonton Centre: 135.800
Yellowknife Ground: 121.900
Yellowknife Tower: 118.500

CYZX App/Dep/PAR (Archives)
Greenwood, Nova Scotia, Canada

Feed Status: UP
Listen in your browser - HTML5 player(in browser, HTML5)
Click here to listen with your own player(launches your MP3 player)

CYZX 240000Z 28003KT 15SM FEW065 FEW250 18/12 A3005 RMK SC1CI1 SLP175

CYZX Flight Activity (Flightaware)

Listeners: 0 out of 1376 total

Greenwood Approach/Departure: 120.600
Greenwood PAR: 118.100
Greenwood Terminal: 126.200

CYZX Del/Ground (Archives)
Greenwood, Nova Scotia, Canada

Feed Status: UP
Listen in your browser - HTML5 player(in browser, HTML5)
Click here to listen with your own player(launches your MP3 player)

CYZX 240000Z 28003KT 15SM FEW065 FEW250 18/12 A3005 RMK SC1CI1 SLP175

CYZX Flight Activity (Flightaware)

Listeners: 0 out of 1376 total

Greenwood Clearance Delivery: 128.025
Greenwood Clearance Delivery: 283.900
Greenwood Ground: 133.750
Greenwood Ground: 289.400

CYZX Tower (Archives)
Greenwood, Nova Scotia, Canada

Feed Status: UP
Listen in your browser - HTML5 player(in browser, HTML5)
Click here to listen with your own player(launches your MP3 player)

CYZX 240000Z 28003KT 15SM FEW065 FEW250 18/12 A3005 RMK SC1CI1 SLP175

CYZX Flight Activity (Flightaware)

Listeners: 0 out of 1376 total

Greenwood Tower: 119.500
Greenwood Tower: 324.300

CZBA AWOS (Archives)
Burlington, Ontario, Canada

Feed Status: UP
Listen in your browser - HTML5 player(in browser, HTML5)
Click here to listen with your own player(launches your MP3 player)

CZBA Flight Activity (Flightaware)

Listeners: 1 out of 1376 total

Burlington AWOS: 122.550

CZBA CFA3 (Archives)
Burlington, Ontario, Canada

Feed Status: UP
Listen in your browser - HTML5 player(in browser, HTML5)
Click here to listen with your own player(launches your MP3 player)

CZBA Flight Activity (Flightaware)

Listeners: 1 out of 1376 total

Burlington Practice Area: 122.925

CZBA CTAF
Burlington, Ontario, Canada

Feed Status: DOWN
Offline since: 2021-07-09 16:50:21 UTC

Burlington CTAF: 123.500

CZBB Tower (Inner) (Archives)
Boundary Bay, British Columbia, Canada

Feed Status: UP
Listen in your browser - HTML5 player(in browser, HTML5)
Click here to listen with your own player(launches your MP3 player)

CZBB Flight Activity (Flightaware)

Listeners: 0 out of 1376 total

Boundary Bay Tower (Inner): 118.100